TimePDT,TemperatureF,Dew PointF,Humidity,Sea Level PressureIn,VisibilityMPH,Wind Direction,Wind SpeedMPH,Gust SpeedMPH,PrecipitationIn,Events,Conditions,WindDirDegrees,DateUTC
12:53 AM,37.0,27.0,67,30.33,10.0,West,6.9,-,N/A,,Clear,280,2012-10-04 07:53:00
1:53 AM,37.0,27.0,67,30.33,10.0,West,8.1,-,N/A,,Clear,280,2012-10-04 08:53:00
2:53 AM,37.0,27.0,67,30.32,10.0,West,8.1,-,N/A,,Clear,280,2012-10-04 09:53:00
3:53 AM,37.0,27.0,67,30.32,10.0,West,6.9,-,N/A,,Clear,260,2012-10-04 10:53:00
4:53 AM,33.1,26.1,75,30.32,10.0,West,8.1,-,N/A,,Clear,270,2012-10-04 11:53:00
5:53 AM,35.1,26.1,70,30.32,10.0,West,10.4,-,N/A,,Clear,280,2012-10-04 12:53:00
6:53 AM,35.1,26.1,70,30.33,10.0,West,9.2,-,N/A,,Clear,270,2012-10-04 13:53:00
7:53 AM,41.0,27.0,57,30.35,10.0,West,9.2,-,N/A,,Clear,260,2012-10-04 14:53:00
8:53 AM,48.9,28.9,46,30.35,10.0,West,5.8,-,N/A,,Clear,260,2012-10-04 15:53:00
9:53 AM,55.0,28.0,35,30.35,10.0,NNW,6.9,-,N/A,,Clear,340,2012-10-04 16:53:00
10:53 AM,60.1,26.1,27,30.34,10.0,ENE,6.9,23.0,N/A,,Clear,60,2012-10-04 17:53:00
11:53 AM,61.0,25.0,25,30.33,10.0,ENE,8.1,16.1,N/A,,Clear,70,2012-10-04 18:53:00
12:53 PM,63.0,25.0,24,30.32,10.0,Variable,3.5,-,N/A,,Clear,0,2012-10-04 19:53:00
1:53 PM,64.0,23.0,21,30.31,10.0,Calm,Calm,-,N/A,,Clear,0,2012-10-04 20:53:00
2:53 PM,64.9,18.0,16,30.30,10.0,Calm,Calm,-,N/A,,Clear,0,2012-10-04 21:53:00
3:53 PM,64.9,19.0,17,30.29,10.0,Variable,4.6,-,N/A,,Clear,0,2012-10-04 22:53:00
4:53 PM,64.9,19.9,18,30.29,10.0,ENE,9.2,-,N/A,,Clear,60,2012-10-04 23:53:00
5:53 PM,62.1,21.0,21,30.29,10.0,East,6.9,-,N/A,,Clear,90,2012-10-05 00:53:00
6:53 PM,52.0,27.0,38,30.30,10.0,Calm,Calm,-,N/A,,Clear,0,2012-10-05 01:53:00
7:53 PM,45.0,27.0,49,30.30,10.0,West,8.1,-,N/A,,Clear,270,2012-10-05 02:53:00
8:53 PM,41.0,27.0,57,30.31,10.0,West,8.1,-,N/A,,Clear,280,2012-10-05 03:53:00
9:53 PM,37.0,24.1,59,30.32,10.0,West,5.8,-,N/A,,Clear,260,2012-10-05 04:53:00
10:53 PM,37.0,25.0,62,30.32,10.0,West,6.9,-,N/A,,Clear,280,2012-10-05 05:53:00
11:53 PM,36.0,25.0,64,30.33,10.0,WNW,6.9,-,N/A,,Clear,290,2012-10-05 06:53:00